Location: Crescent
(42.8242°N, 73.7329°W)
Time: 18:10:58
(UTC+00:00)

Courier 1B Rocket - All Passes

Search period start: 18 February 2026 00:00
Search period end: 28 February 2026 00:00
Orbit: 920 x 1201 km, 28.2° (Epoch: 18 February)

Date Brightness Start Highest point End Pass type
(mag) Time Alt. Az. Time Alt. Az. Time Alt. Az.
18 Feb - 00:13:45 10° SSW 00:17:35 17° SSE 00:21:30 10° SE visible
18 Feb - 02:05:10 10° SW 02:09:58 22° S 02:14:57 10° SE visible
18 Feb - 03:58:14 10° SW 04:02:26 18° SSW 04:06:48 10° SSE night (unlit)
18 Feb - 23:13:55 10° S 23:16:45 13° SSE 23:19:36 10° SE visible
19 Feb - 01:04:27 10° SW 01:09:02 21° S 01:13:45 10° SE visible
19 Feb - 02:56:59 10° SW 03:01:29 20° S 03:06:08 10° SE visible
19 Feb - 04:52:31 10° SSW 04:53:52 11° SSW 04:55:13 10° S night (unlit)
20 Feb - 00:03:52 10° SSW 00:08:08 19° S 00:12:28 10° SE visible
20 Feb - 01:55:57 10° SW 02:00:32 21° S 02:05:17 10° SE visible
20 Feb - 03:49:51 10° SW 03:52:55 14° SSW 03:56:06 10° S night (unlit)
20 Feb - 23:03:32 10° SSW 23:07:15 16° SSE 23:11:00 10° SE visible
21 Feb - 00:55:03 10° SW 00:59:36 21° S 01:04:17 10° SE visible
21 Feb - 02:48:12 10° SW 02:52:01 16° SSW 02:55:55 10° SSE visible
21 Feb - 22:03:34 10° S 22:06:24 13° SSE 22:09:14 10° SE daylight
21 Feb - 23:54:15 10° SW 23:58:42 21° S 00:03:13 10° SE visible
22 Feb - 01:46:55 10° SW 01:51:06 19° S 01:55:23 10° SSE visible
22 Feb - 21:05:13 10° SSE 21:05:34 10° SSE 21:05:55 10° SSE daylight
22 Feb - 22:53:36 10° SW 22:57:49 19° S 23:02:02 10° SE visible
23 Feb - 00:45:48 10° SW 00:50:12 20° S 00:54:40 10° SE visible
23 Feb - 02:39:58 10° SW 02:42:32 13° SSW 02:45:07 10° S visible
23 Feb - 21:53:08 10° SSW 21:56:56 17° SSE 22:00:43 10° SE daylight
23 Feb - 23:44:49 10° SW 23:49:17 21° S 23:53:48 10° SE visible
24 Feb - 01:38:09 10° SW 01:41:38 15° SSW 01:45:12 10° SSE visible
24 Feb - 20:52:59 10° SSW 20:56:04 14° SSE 20:59:06 10° SE daylight
24 Feb - 22:43:55 10° SW 22:48:24 20° S 22:52:51 10° SE daylight
25 Feb - 00:36:45 10° SW 00:40:46 18° S 00:44:49 10° SSE visible
25 Feb - 19:53:40 10° S 19:55:12 11° SSE 19:56:42 10° SE daylight
25 Feb - 21:43:09 10° SW 21:47:30 19° S 21:51:47 10° SE daylight
25 Feb - 23:35:31 10° SW 23:39:53 20° S 23:44:14 10° SE visible
26 Feb - 01:30:01 10° SW 01:32:10 12° SSW 01:34:19 10° S visible
26 Feb - 20:42:32 10° SSW 20:46:36 17° SSE 20:50:34 10° SE daylight
26 Feb - 22:34:25 10° SW 22:38:59 21° S 22:43:30 10° SE daylight
27 Feb - 00:27:58 10° SW 00:31:19 15° SSW 00:34:40 10° SSE visible
27 Feb - 19:42:11 10° SSW 19:45:41 15° SSE 19:49:07 10° SE daylight
27 Feb - 21:33:25 10° SW 21:38:05 21° S 21:42:38 10° SE daylight
27 Feb - 23:26:25 10° SW 23:30:27 18° SSW 23:34:27 10° SSE visible
